Location: Newark
(49.8969°N, 3.3422°E)
Time: 11:30:24
(UTC+00:00)

A-11 Canister half - Pass Details

Date: 26 January 2020
Orbit: 1517 x 1683 km, 47.2° (Epoch: 22 February)

Event Time Altitude Azimuth Distance (km) Brightness Sun altitude
Rises 00:22:01 0° 242° (WSW) 4,725 - -58.7°
Reaches altitude 10° 00:25:08 10° 240° (WSW) 3,725 - -58.6°
Maximum altitude 00:34:20 65° 161° (SSE) 1,647 - -58.2°
Drops below altitude 10° 00:43:27 10° 83° (E) 3,682 - -57.7°
Exits shadow 00:44:48 - 82° (E) 4,115 11.4 -57.7°
Sets 00:46:30 0° 80° (E) 4,668 11.8 -57.6°
